Flag for Canada Weather past 2 weeks in Dawson Creek, British Columbia, Canada

Now
75 °F

Partly sunny.


Feels Like: 78 °F
Forecast: 55 / 77 °F
Wind: 12 mph from West

Location: Dawson Creek Airport

Current Time: Jun 30, 2015 at 6:03:43 PM

Latest Report: Jun 30, 2015 at 5:00 PM


Visibility: 9 mi

Pressure: 29.97 "Hg

Humidity: 54%

Dew point: 57 °F

Location of Dawson CreekLocation

Historic Weather in Dawson Creek — Graph

°F

Dawson Creek temperature yesterday

Maximum temperature yesterday: 86 °F (at 1:54 PM)
Minimum temperature yesterday: 55 °F (at 2:00 AM)
Average temperature yesterday: 72 °F

Past Weeks' High & Low Weather Summary

 TemperatureHumidityPressure
High86 °F (Jun 29, 1:54 PM)100% (Jun 16, 4:00 PM)30.22 "Hg (Jun 16, 4:00 PM)
Low43 °F (Jun 16, 1:00 AM)29% (Jun 29, 1:54 PM)29.84 "Hg (Jun 18, 8:00 PM)
Average61 °F69%29.99 "Hg
* Reported Jun 15 5:00 PM — Jun 30 5:00 PM, Dawson Creek, Weather by CustomWeather, © 2015

Note: Actual official high and low records may vary slightly from our data, if they occured in-between our weather recording intervals... More about our weather records

Advertising

Dawson Creek weather history for previous 24 hours

 ConditionsComfort  
Time TempWeatherWind HumidityBarometerVisibility
5:00 PM
Tue, Jun 30
75 °FPartly sunny.12 mph54%29.97 "Hg9 mi
4:00 PM75 °FSunny.12 mph47%29.97 "Hg9 mi
3:00 PM77 °FPartly sunny.8 mph47%29.98 "Hg9 mi
2:00 PM75 °FScattered clouds.7 mph57%30.00 "Hg9 mi
1:00 PM73 °FMostly cloudy.6 mph57%30.00 "Hg9 mi
12:00 PM70 °FOvercast.3 mph69%30.01 "Hg9 mi
11:00 AM68 °FOvercast.8 mph73%30.01 "Hg9 mi
10:00 AM68 °FMostly cloudy.5 mph78%30.01 "Hg9 mi
9:00 AM66 °FPartly sunny.No wind78%29.99 "Hg9 mi
8:00 AM63 °FThunderstorms. Overcast.5 mph88%29.99 "Hg9 mi
7:59 AM63 °FThunderstorms. Overcast.6 mph88%29.98 "Hg9 mi
7:00 AM66 °FThunderstorms. Overcast.8 mph73%29.96 "Hg9 mi
6:00 AM66 °FMostly cloudy.9 mph68%29.94 "Hg9 mi
5:00 AM66 °FOvercast.6 mph68%29.92 "Hg9 mi
4:00 AM64 °FPassing clouds.10 mph68%29.91 "Hg9 mi
3:00 AM66 °FMostly cloudy.13 mph64%29.90 "Hg9 mi
2:00 AM66 °FPassing clouds.10 mph64%29.90 "Hg9 mi
1:00 AM68 °FClear.8 mph64%29.89 "Hg9 mi
12:00 AM70 °FPassing clouds.8 mph64%29.89 "Hg9 mi
11:00 PM
Mon, Jun 29
70 °FPassing clouds.No wind78%29.88 "Hg9 mi
10:00 PM72 °FPartly sunny.2 mph69%29.88 "Hg9 mi
9:00 PM75 °FPartly sunny.7 mph61%29.88 "Hg9 mi
8:00 PM77 °FSunny.5 mph61%29.88 "Hg9 mi
7:00 PM82 °FSunny.7 mph42%29.87 "Hg9 mi
6:00 PM84 °FScattered clouds.12 mph37%29.86 "Hg9 mi
Weather by CustomWeather, © 2015

See weather overviewHow to use our weather pages